Date String (YYYY-MM-DD hh:mm:ss) UTC,Instrument flags,absolute air pressure of the measurement (hPa),sample flow rate (lpm),inlet stack bypass flow (lpm),air temperature of the measurement (°C),ambient temperature measured by the external sensor (°C),aerosol sample conditioner tube jacket temperature (°C),OPC LED temperature (°C),internal box temperature (°C),relative humidity of the measurement (%),span deviation,mass concentration of particles derived from Lorenz-Mie calculation of OPC scattering (μg/m³),mass concentration of particles derived from Lorenz-Mie calculation of OPC scattering (μg/m³),mass concentration of particles derived from Lorenz-Mie calculation of OPC scattering (μg/m³)
DateTimeUTC,F1_M11,P_M11,Q1_M11,Q2_M11,T1_M11,T2_M11,T3_M11,T4_M11,T5_M11,U1_M11,ZSPAN_M11,X0_M11,X2_M11,X1_M11
2023-09-10 07:00:00,SystemResetWarning,0836.9,5.00,000.00,028.4,027.5,000.0,036.7,030.1,30.3,0000.6,0035.51,0017.17,0014.68
2023-09-10 07:01:00,SystemResetWarning,0836.9,5.00,000.00,028.4,027.6,000.0,036.7,030.1,30.3,0000.6,0035.43,0017.20,0014.74
2023-09-10 07:02:00,SystemResetWarning,0836.9,4.99,000.00,028.5,027.2,000.0,036.7,030.1,30.3,0000.5,0035.88,0017.29,0014.80
2023-09-10 07:03:00,SystemResetWarning,0837.0,5.00,000.00,028.4,025.4,000.0,036.7,029.8,30.4,0000.3,0036.65,0017.43,0014.84
2023-09-10 07:04:00,SystemResetWarning,0837.0,5.01,000.00,028.4,024.7,000.0,036.6,029.8,30.5,0000.2,0037.37,0017.53,0014.86
2023-09-10 07:05:00,SystemResetWarning,0837.0,5.01,000.00,028.3,024.8,000.0,036.6,029.6,30.7,0000.3,0036.82,0017.57,0014.89
2023-09-10 07:06:00,SystemResetWarning,0837.0,4.99,000.00,028.2,025.1,000.0,036.6,029.5,31.0,0000.5,0036.44,0017.56,0014.89
2023-09-10 07:07:00,SystemResetWarning,0837.0,5.00,000.00,028.2,025.5,000.0,036.6,029.5,31.0,0000.6,0036.71,0017.57,0014.90
2023-09-10 07:08:00,SystemResetWarning,0837.0,5.01,000.00,028.2,025.8,000.0,036.6,029.6,31.1,0000.7,0037.40,0017.64,0014.92
2023-09-10 07:09:00,SystemResetWarning,0837.0,5.01,000.00,028.2,026.1,000.0,036.6,029.7,31.1,0000.7,0037.11,0017.62,0014.94
2023-09-10 07:10:00,SystemResetWarning,0836.9,4.99,000.00,028.2,026.4,000.0,036.6,029.7,31.0,0000.6,0035.86,0017.70,0015.01
2023-09-10 07:11:00,SystemResetWarning,0836.9,5.00,000.00,028.2,026.6,000.0,036.6,029.8,31.0,0000.7,0035.85,0017.70,0015.07
2023-09-10 07:12:00,SystemResetWarning,0836.9,5.00,000.00,028.2,026.8,000.0,036.7,029.8,31.0,0000.7,0035.37,0017.59,0015.08
2023-09-10 07:13:00,SystemResetWarning,0837.0,5.00,000.00,028.3,027.0,000.0,036.7,029.9,30.8,0000.8,0034.35,0017.55,0015.10
2023-09-10 07:14:00,SystemResetWarning,0837.0,5.00,000.00,028.3,027.1,000.0,036.7,029.9,30.7,0000.9,0033.94,0017.55,0015.14
2023-09-10 07:15:00,SystemResetWarning,0837.0,5.00,000.00,028.3,027.2,000.0,036.7,030.0,30.8,0001.0,0033.83,0017.56,0015.18
2023-09-10 07:16:00,SystemResetWarning,0837.0,4.99,000.00,028.4,027.3,000.0,036.7,030.0,30.7,0000.8,0033.29,0017.57,0015.22
2023-09-10 07:17:00,SystemResetWarning,0836.9,5.00,000.00,028.4,027.4,000.0,036.7,030.1,30.6,0000.8,0035.06,0017.70,0015.30
2023-09-10 07:18:00,SystemResetWarning,0836.9,5.01,000.00,028.4,027.5,000.0,036.8,030.1,30.6,0000.7,0035.10,0017.96,0015.40
2023-09-10 07:19:00,SystemResetWarning,0836.9,5.00,000.00,028.5,027.5,000.0,036.8,030.2,30.6,0000.6,0034.97,0018.05,0015.51
2023-09-10 07:20:00,SystemResetWarning,0836.9,4.99,000.00,028.5,026.5,000.0,036.7,030.0,30.5,0000.7,0034.73,0018.16,0015.61
2023-09-10 07:21:00,SystemResetWarning,0836.9,5.01,000.00,028.4,025.0,000.0,036.7,029.8,30.6,0000.9,0035.52,0018.24,0015.67
2023-09-10 07:22:00,SystemResetWarning,0836.8,5.01,000.00,028.4,024.7,000.0,036.6,029.7,30.6,0001.0,0036.07,0018.32,0015.74
2023-09-10 07:23:00,SystemResetWarning,0836.9,5.00,000.00,028.2,024.9,000.0,036.6,029.5,30.7,0001.0,0036.72,0018.50,0015.84
2023-09-10 07:24:00,SystemResetWarning,0837.0,4.99,000.00,028.2,025.2,000.0,036.6,029.5,30.7,0001.1,0037.67,0018.72,0015.93
2023-09-10 07:25:00,SystemResetWarning,0837.0,5.00,000.00,028.2,025.6,000.0,036.6,029.5,30.6,0001.0,0038.02,0018.83,0015.99
2023-09-10 07:26:00,SystemResetWarning,0836.9,5.00,000.00,028.2,025.9,000.0,036.6,029.6,30.5,0001.1,0037.62,0018.86,0016.02
2023-09-10 07:27:00,SystemResetWarning,0836.9,5.01,000.00,028.2,026.2,000.0,036.6,029.7,30.5,0001.2,0037.37,0018.89,0016.06
2023-09-10 07:28:00,SystemResetWarning,0836.9,5.01,000.00,028.2,026.4,000.0,036.6,029.7,30.6,0001.2,0037.19,0018.89,0016.06
2023-09-10 07:29:00,SystemResetWarning,0836.8,5.00,000.00,028.2,026.6,000.0,036.6,029.8,30.5,0001.2,0037.42,0018.89,0016.07
2023-09-10 07:30:00,SystemResetWarning,0836.8,5.00,000.00,028.2,026.8,000.0,036.6,029.8,30.4,0001.4,0036.72,0018.80,0016.05
2023-09-10 07:31:00,SystemResetWarning,0836.8,5.00,000.00,028.2,026.9,000.0,036.7,029.8,30.4,0001.4,0036.97,0018.89,0016.02
2023-09-10 07:32:00,SystemResetWarning,0836.7,5.00,000.00,028.3,027.0,000.0,036.7,029.9,30.4,0001.1,0036.66,0018.89,0016.02
2023-09-10 07:33:00,SystemResetWarning,0836.8,4.99,000.00,028.3,027.1,000.0,036.7,029.9,30.3,0001.0,0035.94,0018.93,0016.04
2023-09-10 07:34:00,SystemResetWarning,0836.8,4.99,000.00,028.3,027.2,000.0,036.7,030.0,30.2,0001.0,0035.93,0018.94,0016.05
2023-09-10 07:35:00,SystemResetWarning,0836.8,5.00,000.00,028.4,027.3,000.0,036.7,030.0,29.6,0001.0,0035.14,0018.86,0016.02
2023-09-10 07:36:00,SystemResetWarning,0836.8,5.00,000.00,028.4,027.3,000.0,036.8,030.0,29.7,0000.9,0035.80,0018.81,0016.01
2023-09-10 07:37:00,SystemResetWarning,0836.8,5.00,000.00,028.4,027.4,000.0,036.8,030.1,29.9,0000.9,0035.24,0018.85,0016.03
2023-09-10 07:38:00,SystemResetWarning,0836.8,5.00,000.00,028.4,027.4,000.0,036.8,030.1,29.9,0000.8,0037.04,0018.85,0016.03
2023-09-10 07:39:00,SystemResetWarning,0836.7,5.00,000.00,028.5,027.5,000.0,036.8,030.1,29.8,0000.7,0037.10,0018.78,0016.02
2023-09-10 07:40:00,SystemResetWarning,0836.7,4.99,000.00,028.5,026.8,000.0,036.8,030.1,29.8,0000.8,0037.45,0018.74,0016.02
2023-09-10 07:41:00,SystemResetWarning,0836.6,4.99,000.00,028.4,025.2,000.0,036.7,029.8,29.9,0000.6,0037.47,0018.80,0016.03
2023-09-10 07:42:00,SystemResetWarning,0836.6,5.01,000.00,028.4,024.5,000.0,036.6,029.7,29.9,0000.6,0036.57,0018.72,0016.04
2023-09-10 07:43:00,SystemResetWarning,0836.6,5.01,000.00,028.3,024.6,000.0,036.6,029.4,30.2,0000.8,0037.40,0018.69,0016.01
2023-09-10 07:44:00,SystemResetWarning,0836.5,5.01,000.00,028.2,025.0,000.0,036.6,029.4,30.4,0001.1,0038.57,0018.75,0016.02
2023-09-10 07:45:00,SystemResetWarning,0836.5,4.99,000.00,028.1,025.3,000.0,036.6,029.5,30.5,0001.0,0039.11,0018.88,0016.02
2023-09-10 07:46:00,SystemResetWarning,0836.5,5.00,000.00,028.1,025.7,000.0,036.6,029.5,30.6,0001.0,0039.24,0018.89,0016.04
2023-09-10 07:47:00,SystemResetWarning,0836.5,5.00,000.00,028.1,026.0,000.0,036.6,029.6,30.7,0001.1,0037.42,0018.78,0016.03
2023-09-10 07:48:00,SystemResetWarning,0836.5,5.00,000.00,028.1,026.2,000.0,036.6,029.6,30.8,0001.1,0037.70,0018.70,0016.01
2023-09-10 07:49:00,SystemResetWarning,0836.5,5.00,000.00,028.1,026.4,000.0,036.6,029.7,30.9,0001.0,0036.53,0018.66,0016.00
2023-09-10 07:50:00,SystemResetWarning,0836.5,4.99,000.00,028.2,026.6,000.0,036.6,029.7,30.9,0001.2,0036.52,0018.68,0016.01
2023-09-10 07:51:00,SystemResetWarning,0836.5,5.00,000.00,028.2,026.7,000.0,036.7,029.8,30.9,0001.1,0035.34,0018.62,0016.00
2023-09-10 07:52:00,SystemResetWarning,0836.5,5.00,000.00,028.2,026.9,000.0,036.7,029.8,30.9,0001.1,0035.51,0018.60,0016.00
2023-09-10 07:53:00,SystemResetWarning,0836.5,5.01,000.00,028.2,027.0,000.0,036.7,029.8,30.8,0001.1,0036.34,0018.71,0016.01
2023-09-10 07:54:00,SystemResetWarning,0836.5,5.00,000.00,028.3,027.1,000.0,036.7,029.9,30.3,0001.0,0036.74,0018.79,0016.03
2023-09-10 07:55:00,SystemResetWarning,0836.5,5.00,000.00,028.3,027.1,000.0,036.7,029.9,29.5,0000.8,0036.98,0018.78,0016.01
2023-09-10 07:56:00,SystemResetWarning,0836.5,5.00,000.00,028.3,027.2,000.0,036.7,030.0,29.2,0000.8,0037.94,0018.63,0015.95
2023-09-10 07:57:00,SystemResetWarning,0836.5,5.00,000.00,028.4,027.3,000.0,036.7,030.0,29.3,0000.9,0038.87,0018.61,0015.93
2023-09-10 07:58:00,SystemResetWarning,0836.5,5.00,000.00,028.4,027.3,000.0,036.8,030.0,29.7,0001.0,0040.13,0018.62,0015.93
2023-09-10 07:59:00,SystemResetWarning,0836.5,4.99,000.00,028.4,027.4,000.0,036.8,030.1,29.9,0000.9,0040.68,0018.68,0015.96
